Location: Ferchesar
(52.6477°N, 12.4298°E)
Time: 05:44:08
(UTC+01:00)

Transit 2A Rocket - Pass Details

Date: 15 December 2021
Orbit: 585 x 917 km, 66.7° (Epoch: 25 January)

Event Time Altitude Azimuth Distance (km) Brightness Sun altitude
Exits shadow 04:44:26 15° 176° (S) 2,156 7.3 -30.5°
Maximum altitude 04:48:45 39° 115° (ESE) 1,323 6.5 -29.8°
Drops below altitude 10° 04:54:20 10° 49° (NE) 2,614 8.3 -29.0°
Sets 04:57:03 0° 42° (NE) 3,567 9.0 -28.5°
